Theta_e
288 289 289 288 287 288 286 285 281 284 285 289 291 294 295 297 299 299 300 301 302 302 303 305 308 321 329 334 337 338 336 335 333 334 334 334 333 334 334 334 332 329 326 326
286 289 288 286 288 289 289 288 288 288 286 294 295 296 296 297 298 298 300 302 303 303 306 315 315 326 325 332 333 336 334 333 334 333 334 333 332 329 327 326 325 326 323 323
280 287 287 282 288 289 290 292 289 284 288 293 294 295 296 297 300 304 306 309 311 316 320 322 325 322 319 329 334 333 333 334 334 333 331 330 328 326 323 322 322 322 323 322
281 282 276 287 294 292 289 291 291 291 292 292 292 294 296 299 303 301 302 306 311 317 318 319 321 321 321 329 333 333 333 333 332 331 329 325 326 324 322 325 326 324 322 320
280 277 283 288 291 290 288 287 293 291 291 292 293 294 294 303 301 299 301 306 312 319 319 320 319 321 322 325 332 332 330 331 331 328 325 323 322 324 325 327 327 324 320 316
283 277 272 285 293 295 293 283 294 292 292 292 293 285 291 297 299 300 302 306 312 318 322 320 319 320 318 328 327 326 326 325 324 325 324 323 325 325 326 325 323 322 319 316
282 280 283 291 295 295 279 283 294 293 294 293 291 294 297 300 301 302 303 308 316 320 322 321 323 325 325 324 323 325 325 324 324 325 326 327 326 326 325 323 323 320 318 316
284 281 275 294 291 285 291 294 294 294 296 294 296 298 300 303 303 302 304 311 315 319 320 322 321 324 320 322 324 325 325 325 324 324 326 327 326 325 324 322 320 318 319 317
286 284 294 294 291 295 297 295 296 296 297 297 297 299 302 302 304 306 309 312 316 321 322 320 322 325 321 323 325 324 323 323 324 324 324 326 324 321 322 322 320 319 318 316
288 292 292 294 297 298 297 297 299 298 297 298 298 301 301 302 303 305 308 310 317 321 317 319 324 325 323 324 326 324 322 323 323 322 321 322 323 323 323 321 320 319 318 316
288 293 294 296 297 296 298 299 298 298 299 300 301 301 302 303 305 307 309 313 319 322 323 323 324 324 325 325 325 323 321 323 322 322 319 314 308 311 320 318 320 320 318 318
289 296 293 293 294 298 297 298 298 298 299 301 301 301 302 303 307 310 313 317 320 322 322 323 326 324 325 326 325 323 322 322 320 317 317 315 312 307 295 297 300 303 306 314
296 296 296 294 296 298 298 298 299 299 300 299 300 301 303 306 312 316 322 320 319 319 320 322 325 324 325 324 324 324 322 322 320 318 317 315 315 315 311 303 297 296 299 299
296 295 293 295 293 298 298 298 300 300 300 300 300 303 305 308 310 310 313 317 317 318 318 322 325 323 324 324 322 321 321 314 321 320 318 316 316 316 317 318 315 310 297 297
295 296 295 295 298 298 298 298 296 296 297 297 300 301 302 303 306 307 309 310 310 311 313 321 322 322 325 323 321 320 322 322 323 322 320 317 318 318 316 316 313 309 307 300
296 295 294 294 296 297 296 296 294 295 296 296 297 299 301 303 304 304 305 307 304 302 308 316 321 320 323 322 322 321 322 310 317 322 320 319 319 317 315 315 315 316 314 310
291 291 292 294 296 295 295 295 295 295 296 296 295 298 299 300 300 301 301 303 303 304 305 305 310 321 321 318 319 321 320 319 311 323 321 321 320 317 316 316 316 316 315 311
295 294 294 296 295 295 295 296 295 295 294 296 296 295 296 297 297 298 299 300 301 305 303 305 305 311 316 315 318 324 325 321 322 322 323 323 321 319 318 317 316 315 315 304
295 295 297 297 297 296 296 295 294 294 295 295 294 293 294 295 297 297 298 298 299 300 298 302 299 307 312 309 314 321 321 321 321 321 322 314 321 321 320 318 317 316 316 312
295 296 297 298 298 297 295 295 294 294 294 294 295 294 293 294 296 296 297 294 295 297 299 300 303 307 309 308 308 321 322 322 319 318 321 321 322 321 319 310 317 317 318 316
296 296 296 297 297 297 296 296 295 293 293 293 293 292 293 295 294 294 295 293 294 295 296 297 300 298 303 304 315 318 318 316 315 315 315 315 319 320 319 319 318 315 313 309
296 295 296 296 296 296 297 297 296 294 294 294 294 294 293 293 294 293 293 292 294 290 295 297 299 292 296 297 307 309 307 308 306 306 305 305 307 307 306 306 304 302 301 301
296 296 297 296 295 295 295 296 296 296 295 295 294 294 293 293 293 292 290 293 293 291 294 294 290 290 292 302 302 302 302 302 300 299 298 298 299 299 297 298 297 296 296 295
297 296 296 297 297 295 293 295 296 296 295 296 296 296 295 294 294 296 296 293 291 290 291 291 290 289 292 300 300 299 301 299 296 295 295 294 295 294 295 295 294 293 292 291
300 297 297 296 295 293 294 294 294 296 295 295 295 296 296 296 295 295 296 295 291 293 294 289 289 290 295 295 296 297 297 296 295 294 292 293 291 291 291 292 292 291 291 291
304 297 295 296 295 295 294 294 292 293 294 293 294 295 296 296 297 297 296 294 295 293 294 294 295 295 294 294 293 294 294 295 294 293 292 291 290 290 290 290 290 290 290 290
303 299 303 294 294 293 294 293 292 292 293 293 293 294 295 295 295 295 294 296 295 295 295 295 295 293 294 293 293 293 292 292 291 292 291 291 290 290 289 289 288 289 288 287
Wind_Speed
19 22 20 19 20 21 17 15 13 17 17 17 9 17 11 14 13 13 16 15 16 13 18 20 9 10 9 5 12 13 13 12 11 12 12 11 12 11 11 12 9 9 7 7
15 18 16 18 18 20 19 14 9 5 12 11 12 10 9 13 15 15 16 23 26 25 23 18 14 12 3 7 10 13 14 14 13 12 14 14 12 11 10 10 9 11 8 9
6 8 13 7 4 4 3 2 3 7 10 10 16 17 16 20 20 13 18 16 12 13 3 14 7 11 9 13 11 14 15 15 14 14 13 13 12 12 10 9 8 9 8 8
6 6 3 3 6 5 8 11 12 13 8 11 16 20 18 15 5 13 18 19 17 13 1 4 5 8 11 16 13 16 17 16 15 15 13 11 11 10 9 10 11 9 7 8
3 2 8 2 4 3 3 18 12 6 12 18 18 20 20 2 14 19 19 20 16 15 5 4 2 8 8 8 13 17 16 15 14 13 11 11 11 11 10 10 9 7 7 8
1 3 5 3 4 3 7 11 2 12 16 20 19 15 18 19 24 24 21 17 16 17 4 4 1 7 12 13 16 16 14 14 12 11 11 12 11 12 7 9 9 7 8 6
5 6 7 4 4 2 0 7 15 13 17 16 14 11 20 24 24 18 18 19 17 14 7 5 4 13 18 15 17 14 13 13 12 11 12 12 11 10 9 9 10 9 8 6
3 4 6 1 2 1 5 18 16 14 13 15 18 19 17 18 16 15 16 17 15 11 6 3 5 10 8 16 13 14 13 13 12 10 10 10 12 8 11 11 11 9 9 7
6 6 5 6 8 7 8 15 17 14 14 15 18 18 17 14 14 10 12 13 15 11 4 6 9 8 11 11 14 14 12 11 10 10 9 10 10 9 9 10 9 8 8 7
1 7 14 7 5 5 7 15 11 11 18 15 17 14 16 14 14 14 13 12 12 9 5 6 8 8 14 14 14 14 12 12 11 10 7 6 7 8 8 8 8 8 7 7
8 13 9 5 6 12 12 10 9 15 14 15 15 14 14 15 16 14 13 11 10 4 5 6 4 13 15 14 14 13 11 10 10 8 9 7 6 4 5 4 8 9 6 7
4 6 5 7 7 11 8 6 12 13 13 13 13 14 15 14 15 16 13 10 6 5 6 10 3 14 13 15 14 14 11 9 8 7 6 7 7 5 14 8 5 7 11 8
6 4 5 6 9 6 5 8 12 12 12 14 14 11 13 14 11 6 5 8 7 8 5 12 6 15 12 14 13 13 12 10 7 7 6 7 5 7 7 8 18 14 10 13
4 5 5 10 11 4 8 11 12 10 10 11 12 11 12 10 7 11 9 8 13 12 11 11 13 15 13 12 11 10 9 13 9 7 7 5 6 7 7 8 8 4 11 8
2 5 8 9 2 3 8 10 10 10 10 11 11 11 10 13 12 12 12 11 15 10 10 1 10 10 11 10 10 11 10 7 8 7 6 7 6 7 8 9 8 6 5 9
5 7 8 8 9 7 8 9 10 10 11 11 11 12 12 10 8 10 13 13 9 11 13 9 12 7 5 7 10 8 7 13 10 7 8 7 5 8 8 8 8 8 7 6
3 6 6 7 7 11 8 9 9 10 11 10 11 12 12 11 9 14 14 15 12 11 11 12 9 5 6 5 8 6 6 6 12 9 8 8 6 8 8 10 9 7 6 6
2 2 5 4 6 10 9 8 10 11 10 11 10 10 11 10 9 10 11 11 11 7 10 11 11 7 6 6 4 8 9 8 8 8 9 8 7 7 7 9 10 8 6 3
4 6 5 5 5 8 7 8 8 8 10 10 9 10 9 9 7 10 8 10 10 12 14 13 16 8 11 9 1 5 7 6 7 8 8 10 8 9 9 9 9 9 8 5
4 5 5 4 4 8 9 8 8 7 8 8 7 8 10 11 13 9 6 10 9 5 10 11 10 10 8 9 6 6 9 9 10 7 9 8 8 9 8 11 10 9 7 7
4 5 5 5 4 6 8 8 8 9 9 9 8 8 7 7 8 6 9 7 10 11 10 10 9 7 6 7 6 11 10 10 9 11 10 9 9 10 10 11 11 10 10 10
3 3 4 5 4 4 6 7 8 8 8 9 9 8 9 9 8 10 10 7 6 15 7 5 6 10 8 13 9 11 12 10 9 11 11 10 10 10 11 12 11 10 10 10
4 3 3 4 5 4 4 6 8 9 10 9 10 9 8 7 6 7 9 10 7 10 5 5 9 15 13 10 10 10 14 12 12 11 11 11 11 11 10 11 11 11 10 10
2 3 3 5 4 4 5 5 6 8 8 8 7 8 7 5 8 7 6 3 11 10 5 7 15 16 12 8 10 11 12 11 11 12 12 15 11 11 11 11 13 11 12 13
3 4 2 4 5 4 5 4 2 4 4 5 7 8 9 8 8 7 9 9 4 2 12 15 16 15 11 9 10 11 11 8 10 12 12 13 12 12 11 10 11 12 12 11
9 4 2 3 5 5 4 3 3 0 2 3 4 4 3 3 5 5 7 8 11 10 11 11 10 11 10 11 12 11 10 11 11 12 14 13 13 13 12 12 12 11 11 12
6 9 7 4 2 4 4 4 4 2 3 2 3 3 5 5 6 8 9 9 9 11 12 10 10 11 11 11 12 11 11 11 12 12 13 13 13 12 13 12 13 11 10 10
Wind_Direction
257 265 271 269 268 273 265 241 238 271 271 285 285 304 240 235 292 301 300 307 311 308 294 297 296 259 283 215 140 134 127 128 133 136 136 136 133 137 136 135 139 130 111 110
283 267 262 266 266 260 253 263 264 289 279 246 312 298 286 258 294 305 315 317 314 305 294 299 261 221 198 220 147 131 130 126 131 137 133 129 122 125 116 114 115 120 115 113
263 302 302 281 308 321 312 306 302 275 272 344 326 324 335 318 311 346 354 332 325 314 337 295 174 151 208 264 138 132 126 130 136 128 127 130 133 124 118 114 115 116 117 117
280 338 287 105 34 33 347 274 311 286 326 328 316 319 303 293 311 339 347 324 332 339 181 298 339 135 207 241 146 134 129 133 135 136 134 128 126 116 114 124 126 124 121 110
270 239 277 330 17 15 353 288 272 332 333 320 331 316 299 32 358 338 318 311 321 318 261 129 358 282 205 262 142 129 127 132 140 137 133 121 117 125 121 122 121 121 120 119
199 263 250 217 162 290 296 272 32 346 322 316 340 310 299 329 320 313 304 306 317 315 308 18 281 318 306 179 133 123 129 140 137 124 119 127 131 129 130 126 121 118 104 107
251 255 273 162 224 273 7 297 312 328 305 310 301 281 299 301 297 291 291 303 321 326 358 78 337 222 197 142 133 134 135 131 128 129 134 135 135 129 124 114 110 106 111 108
241 247 282 116 8 133 244 280 296 299 289 303 291 292 293 295 287 285 293 315 326 324 348 305 278 353 171 134 131 133 133 137 134 136 132 138 134 125 123 121 118 120 117 107
211 235 227 230 223 248 265 285 295 295 301 303 289 295 299 303 307 312 317 320 316 319 47 262 281 275 140 131 130 130 130 133 135 124 127 138 128 125 124 124 128 135 135 135
199 253 254 273 309 291 273 293 297 308 300 297 290 292 299 304 308 310 305 309 304 319 207 267 283 201 127 136 137 134 137 133 130 123 112 110 128 136 137 137 136 147 150 148
253 269 288 301 295 300 301 300 303 308 299 299 299 298 296 297 292 287 286 285 275 199 202 215 217 147 128 135 136 132 127 130 122 122 114 101 70 55 126 111 151 157 161 151
282 275 255 282 287 300 308 315 307 306 308 302 295 293 298 293 287 277 269 261 255 119 337 332 205 126 127 127 134 130 133 131 130 125 125 130 127 100 46 45 113 99 128 133
259 262 243 281 289 300 304 313 315 310 308 304 304 304 306 297 294 307 200 118 80 97 244 321 179 121 137 132 139 139 141 132 121 121 125 134 130 129 117 58 67 52 113 119
251 349 310 276 322 14 349 327 312 312 313 312 312 321 315 311 353 36 24 71 60 21 323 277 155 140 140 138 142 128 121 126 129 134 133 125 113 117 124 127 122 89 37 67
251 260 256 282 266 348 346 325 334 330 329 332 336 337 338 349 14 34 28 14 45 4 348 246 123 132 135 149 130 132 136 134 129 122 122 113 104 99 100 107 107 111 108 66
256 289 306 336 342 9 341 344 342 334 337 336 340 349 355 353 14 37 44 40 49 349 351 42 60 29 93 130 136 141 144 134 127 124 127 122 114 113 111 114 121 125 126 128
326 334 333 347 359 1 356 354 345 343 346 348 354 351 10 358 15 38 30 21 10 7 11 14 9 356 53 61 142 146 134 135 128 131 130 135 132 130 129 136 136 129 130 145
323 329 16 44 358 356 353 0 354 352 350 355 10 9 12 18 28 35 36 25 8 8 34 8 351 339 43 36 126 156 135 139 136 124 123 129 129 123 123 132 133 128 116 87
45 27 59 31 2 13 359 2 351 353 356 1 17 27 18 6 23 50 41 47 20 24 352 338 330 8 34 353 79 82 101 104 105 111 116 121 121 126 125 119 119 129 124 120
73 31 113 98 28 19 14 12 8 7 8 6 13 30 46 23 359 27 58 63 32 4 318 329 347 25 15 343 73 78 95 96 94 89 113 112 121 115 111 114 119 119 119 100
83 51 67 66 37 30 31 4 10 19 21 24 21 35 29 54 50 27 46 46 1 347 332 351 25 2 10 17 54 79 85 89 87 97 93 99 109 114 116 113 106 98 100 96
112 74 82 80 51 33 24 26 32 29 28 34 36 32 43 34 42 53 48 35 349 352 344 10 23 27 30 43 50 77 78 77 89 91 88 85 91 94 95 94 92 88 86 85
140 132 102 114 87 78 37 27 37 31 35 28 23 22 32 48 46 60 58 18 17 360 10 26 47 43 34 52 67 69 82 83 81 83 85 87 85 89 89 95 94 92 90 89
237 167 148 131 118 82 67 21 29 48 29 27 24 22 23 28 37 33 60 49 41 32 59 47 53 50 52 55 74 75 78 80 84 85 87 85 84 83 85 92 94 91 91 89
261 240 164 128 131 130 127 129 55 36 39 11 17 25 42 38 45 30 46 34 349 242 57 44 46 51 57 50 72 77 80 85 93 92 89 87 85 83 80 81 87 95 91 87
320 335 4 186 155 157 157 147 110 122 55 36 12 7 43 72 50 45 71 51 48 50 58 52 53 58 59 61 64 72 77 83 80 87 92 90 90 91 91 88 82 82 87 92
355 359 12 37 70 117 129 135 111 76 80 77 54 34 38 53 56 66 65 67 69 67 67 64 62 63 68 66 68 69 74 78 82 88 88 93 95 90 87 85 84 70 73 79